This is the latest recevied weather packets stored in our database for station/object DL9SEC-13. If no packets are shown the sender has not sent any weather packets the latest 10 day(s).
| Time | Temp. | Humidity | Pressure | Rain* | Wind** | Luminosity | Snow |
|---|---|---|---|---|---|---|---|
| 1778125203 | 9.44° C | 95% | 1014 hPa | 0 mm | - | - | - |
| 1778124303 | 8.89° C | 95% | 1014 hPa | 0 mm | - | - | - |
| 1778123403 | 8.89° C | 95% | 1013.9 hPa | 0 mm | - | - | - |
| 1778122504 | 8.89° C | 95% | 1013.8 hPa | 0 mm | - | - | - |
| 1778121604 | 8.89° C | 95% | 1013.8 hPa | 0 mm | - | - | - |
| 1778120703 | 8.89° C | 95% | 1013.7 hPa | 0 mm | - | - | - |
| 1778119804 | 8.89° C | 94% | 1013.7 hPa | 0 mm | - | - | - |
| 1778118903 | 8.89° C | 93% | 1013.6 hPa | 0 mm | - | - | - |
| 1778118004 | 9.44° C | 93% | 1013.5 hPa | 0 mm | - | - | - |
| 1778117103 | 9.44° C | 93% | 1013.4 hPa | 0 mm | - | - | - |
| 1778116203 | 9.44° C | 93% | 1013.3 hPa | 0 mm | - | - | - |
| 1778115303 | 9.44° C | 92% | 1013.3 hPa | 0 mm | - | - | - |
| 1778114404 | 9.44° C | 92% | 1013.4 hPa | 0 mm | - | - | - |
| 1778113503 | 9.44° C | 94% | 1013.4 hPa | 0 mm | - | - | - |
| 1778112603 | 9.44° C | 93% | 1013.4 hPa | 0 mm | - | - | - |
| 1778111704 | 9.44° C | 92% | 1013.4 hPa | 0 mm | - | - | - |
| 1778110803 | 9.44° C | 92% | 1013.5 hPa | 0 mm | - | - | - |
| 1778109904 | 10° C | 92% | 1013.6 hPa | 0 mm | - | - | - |
| 1778109003 | 10° C | 92% | 1013.5 hPa | 0 mm | - | - | - |
| 1778108103 | 10° C | 90% | 1013.5 hPa | 0 mm | - | - | - |
| 1778107203 | 10.56° C | 91% | 1013.3 hPa | 0 mm | - | - | - |
| 1778106303 | 10.56° C | 90% | 1013.1 hPa | 0 mm | - | - | - |
| 1778105403 | 10.56° C | 94% | 1013 hPa | 0 mm | - | - | - |
| 1778104504 | 10.56° C | 93% | 1013 hPa | 0 mm | - | - | - |
| 1778103603 | 10.56° C | 92% | 1013 hPa | 0 mm | - | - | - |
* Rain latest hour (hover to see other rain measurements)
** Current wind speed in m/s (hover to see current wind gust speed)